Weather in Ulyanovka

Russia / Omsk Oblast     54°58′16″N   73°40′18″E
temp.,
°C
wind,
m/s
gust,
m/s
humid.,
%
clouds,
%
prec.,
mm/h
press.,
hPa
HPBL,
m
29 july, thu
thu2900:00+14s0198100 7.1 100668
03:00+13w379652 0.4 1007209
06:00+10wnw38910 0.4 1008175
09:00+15wnw46651 0.0 1009505
12:00+19wnw56423 0.0 10091777
15:00+21wnw45355 0.0 10092129
18:00+20wnw353316 0.0 10092408
21:00+15w224751 0.0 100911
30 july, fri
fri3000:00+16wsw4848100 0.0 1010231
03:00+12wsw33635 0.0 101043
06:00+12wsw33625 0.0 101142
09:00+18sw5945100 0.0 1012633
12:00+22wsw7103682 0.0 10121976
15:00+23wsw583697 0.0 10112132
18:00+24sw6934100 0.0 10102641
21:00+19ssw51149100 0.0 1010221
31 july, sat
sat3100:00+18ssw61451100 0.0 1009283
03:00+20sw61541100 0.0 1007667
06:00+15sw71691100 1.3 1008670
09:00+16ssw487790 0.3 1008217
12:00+21sw375453 0.4 1008761
15:00+27wsw573162 0.0 10072277
18:00+27nw663990 0.0 10072050
21:00+21nnw477174 0.1 1010304
1 august, sun
sun100:00+16nne33925 0.1 101144
03:00+15nne12905 0.0 101111
06:00+15nne11885 0.0 101211
09:00+21sw01669 0.0 1012448
12:00+25wsw345297 0.1 10101636
15:00+28wnw343999 0.0 10092404
18:00+26se224799 0.0 100841
21:00+22sse46635 0.0 100791
2 august, mon
mon200:00+19sse4107392 0.1 1005185
03:00+19w4994100 0.9 1004297
06:00+18wsw4995100 2.3 1004326
09:00+21wnw588134 0.0 1004603
12:00+26nw794269 0.0 10041749
15:00+26nw993878 0.0 10042245
18:00+25nw810370 0.0 10052440
21:00+21nw51051100 0.0 1006338